Miscellaneous Local Product
Issued by NWS North Platte, NE

Home | Current Version | Previous Version | Graphics & Text | Print | Product List | Glossary On
Versions: 1 2 3 4 5 6 7 8 9 10 11 12 13 14 15 16 17 18 19 20 21 22 23 24 25 26 27 28 29 30 31 32 33 34 35 36 37 38 39 40 41 42 43 44 45 46 47 48 49 50
000
AXUS43 KLBF 220310
MISLBF


WESTERN AND NORTH CENTRAL NEBRASKA HOURLY WEATHER ROUNDUP
NATIONAL WEATHER SERVICE NORTH PLATTE NE
1000 PM CDT SAT APR 21 2018

NOTE: "FAIR" INDICATES FEW OR NO CLOUDS BELOW 12,000 FEET WITH NO
SIGNIFICANT WEATHER AND/OR OBSTRUCTIONS TO VISIBILITY.

NOTE: STATIONS NOT REPORTING VARIABLES SUCH AS SKY/WEATHER OR
PRESSURE ARE PROVIDED BY RAWS AND APRS NETWORKS AND ARE NOT UNDER
NATIONAL WEATHER SERVICE QUALITY CONTROL.

...OBSERVATIONS IN AND NEAR THE EASTERN PANHANDLE OF NEBRASKA...

CITY           SKY/WX    TMP DP  RH WIND       PRES   REMARKS
PINE RIDGE     CLEAR     40  36  86 SE6       30.18S
GORDON         CLOUDY    41  37  87 SE8       30.20S
CHADRON        CLEAR     37  34  89 S8        30.18R WCI  31
ALLIANCE       CLOUDY    40  37  89 S8        30.20R WCI  34
SIDNEY         CLOUDY    38  33  82 S7        30.22R WCI  33
CRESCENT LAKE    N/A     39  37  93 SE6G13      N/A  WCI  35
$$

...OBSERVATIONS IN NORTHERN NEBRASKA AND FAR SOUTHERN SOUTH DAKOTA...

CITY           SKY/WX    TMP DP  RH WIND       PRES   REMARKS
WINNER         CLOUDY    41  35  79 SE5       30.26S
VALENTINE      CLOUDY    45  37  73 SE8       30.25R
AINSWORTH      CLOUDY    40  37  89 SE5       30.25S
O`NEILL        CLOUDY    44  37  78 CALM      30.27R
THEDFORD       CLOUDY    42  37  80 SE8       30.25S
BROKEN BOW     CLOUDY    42  38  85 CALM      30.25R
ORD            CLOUDY    43  37  79 NE7       30.26R
ALBION         CLOUDY    44  38  79 NE6       30.27R
VALENTINE NWR    N/A     42  36  79 SE5         N/A
HALSEY           N/A     41  37  84 SE5         N/A
BUTTE            N/A     41  38  89 SE3         N/A
CHAMBERS         N/A     42  35  77 CALM        N/A
EWING            N/A     44  37  77 E3          N/A
$$

...OBSERVATIONS IN SOUTHWEST NEBRASKA AND FAR NORTHEAST COLORADO...

CITY           SKY/WX    TMP DP  RH WIND       PRES   REMARKS
WRAY           CLOUDY    41  37  87 E6        30.24R
HOLYOKE        CLOUDY    41  37  87 SE5       30.24R
IMPERIAL       CLOUDY    41  39  93 CALM      30.24S
OGALLALA       CLOUDY    41  39  95 CALM      30.23S FOG
NORTH PLATTE   CLOUDY    42  38  85 SE3       30.25R
MCCOOK         CLOUDY    41  39  93 W6        30.24R
LEXINGTON      CLOUDY    42  40  91 CALM      30.26R FOG
STAPLETON        N/A     40  37  89 CALM        N/A
GOTHENBURG       N/A     42  37  83 E3          N/A
CALLAWAY         N/A     41  38  89 E8          N/A
$$

...OBSERVATIONS IN CENTRAL LINCOLN COUNTY AREA...

CITY           SKY/WX    TMP DP  RH WIND       PRES   REMARKS
N.P. AIRPORT   CLOUDY    42  38  85 SE3       30.25R
N.P. DOWNTOWN    N/A     42  38  85 CALM        N/A
N.P. SOUTHEAST   N/A     41  37  84 CALM        N/A
N.P. HILLCREST   N/A     41  37  87 SE3         N/A
$$

...OBSERVATIONS ACROSS THE ROCKIES AND WESTERN HIGH PLAINS...

CITY           SKY/WX    TMP DP  RH WIND       PRES   REMARKS
RAPID CITY     CLEAR     40  35  83 SE12      30.13R WCI  33
SCOTTSBLUFF    MOCLDY    40  38  93 SE13      30.19R WCI  32
CHEYENNE       CLEAR     36  34  92 SW14      30.14F WCI  27
DENVER         MOCLDY    36  34  92 S7        30.18S WCI  30
BERTHOUD PASS  CLOUDY    21  12  68 N24G40    30.28R WCI   4
MONARCH PASS     N/A     23  21  93 NW9       30.43R WCI  13
ASPEN          CLEAR     35  31  85 S7        30.26R WCI  29
STEAMBOAT      FAIR      39  35  85 CALM      30.21R
LARAMIE        CLEAR     35  33  92 S12       30.14R WCI  27
CASPER         CLEAR     49  38  65 E14       30.06R
$$

...OBSERVATIONS ACROSS THE NORTHERN PLAINS...

CITY           SKY/WX    TMP DP  RH WIND       PRES   REMARKS
BISMARCK       CLEAR     48  36  63 S15       30.17R
FARGO          FAIR      52  42  69 S14G23    30.27R
PIERRE         PTCLDY    41  38  89 SE12      30.22R
SIOUX FALLS    CLOUDY    43  34  70 E8        30.30S
$$

...OBSERVATIONS ACROSS THE CENTRAL AND SOUTHERN PLAINS...

CITY           SKY/WX    TMP DP  RH WIND       PRES   REMARKS
OMAHA          CLOUDY    53  28  38 E12       30.25R
GRAND ISLAND   LGT RAIN  43  38  82 E8        30.28R
KANSAS CITY    CLOUDY    57  28  33 E14       30.16R
WICHITA        LGT RAIN  46  46 100 N10       30.16R
DODGE CITY     CLOUDY    44  41  89 N12       30.20R FOG
OKLAHOMA CITY  DRIZZLE   47  46  97 N13       30.10R
DALLAS         CLOUDY    54  54 100 N15       29.99R
AMARILLO       MOCLDY    44  41  89 N10       30.20R
$$




USA.gov is the U.S. government's official web portal to all federal, state and local government web resources and services.